User: anonymous
Location: Fort Wayne
(41.1310°N, 85.1290°W)
Time: 16:52:14
(UTC-04:00)
Language:

Meteor 2-9 Rocket - Orbit

View from above orbital plane
View from above orbital plane
View from above satellite
View from above satellite

Ground track
Ground track

The orbit data is extracted from the following two-line orbital elements,

1 13719U 82116B   14210.44406574  .00000033  00000-0  96103-5 0  4750
2 13719 081.2565 312.5535 0072907 118.4394 298.5711 14.14471310631390
Epoch (UTC): 29 July 2014 10:39:27
Eccentricity: 0.0072907
inclination: 81.2565°
perigee height: 791 km
apogee height: 897 km
right ascension of ascending node: 312.5535°
argument of perigee: 118.4394°
revolutions per day: 14.14471310
mean anomaly at epoch: 298.5711°
orbit number at epoch: 63139

The dashed part of the orbit path shows where the satellite is in the earth's shadow,  

DLR